Date String (YYYY-MM-DD hh:mm:ss) UTC,Instrument flags,Ambient pressure (hPa),Sample flow (lpm),Bypass flow (lpm),Sample temperature (°C),Ambient temperature (°C),ASC tube jacket temperature (°C),LED temperature (°C),Box temperature (°C),Sample RH (%),Span deviation,Mass concentration (μg/m³),Mass concentration (μg/m³),Mass concentration (μg/m³)
DateTimeUTC,F1_M11,P_M11,Q1_M11,Q2_M11,T1_M11,T2_M11,T3_M11,T4_M11,T5_M11,U1_M11,ZSPAN_M11,X0_M11,X2_M11,X1_M11
2022-06-23 19:00:00,,0825.7,5.00,0.00,28.9,27.2,00.0,37.6,30.8,11.1,0000.0,0011.54,0005.16,0004.40
2022-06-23 19:01:00,,0825.7,5.00,0.00,28.8,26.9,00.0,37.5,30.7,11.8,0000.0,0012.29,0005.19,0004.44
2022-06-23 19:02:00,,0825.7,5.01,0.00,28.8,26.9,00.0,37.5,30.7,11.8,0000.0,0012.18,0005.18,0004.47
2022-06-23 19:03:00,,0825.7,5.00,0.00,28.8,27.0,00.0,37.5,30.7,12.2,0000.0,0012.16,0005.20,0004.50
2022-06-23 19:04:00,,0825.6,5.00,0.00,28.8,27.2,00.0,37.5,30.7,11.6,0000.0,0011.94,0005.19,0004.52
2022-06-23 19:05:00,,0825.6,4.99,0.00,28.8,27.4,00.0,37.6,30.8,12.0,0000.0,0011.87,0005.23,0004.54
2022-06-23 19:06:00,,0825.7,4.99,0.00,28.9,27.6,00.0,37.6,30.8,12.0,0000.0,0011.85,0005.22,0004.54
2022-06-23 19:07:00,,0825.7,5.00,0.00,28.9,27.8,00.0,37.6,30.9,11.7,0000.0,0011.82,0005.21,0004.54
2022-06-23 19:08:00,,0825.7,5.00,0.00,28.9,28.0,00.0,37.6,31.0,11.6,0000.0,0012.07,0005.20,0004.53
2022-06-23 19:09:00,,0825.6,5.00,0.00,28.9,27.7,00.0,37.6,30.9,11.3,0000.0,0012.78,0005.22,0004.52
2022-06-23 19:10:00,,0825.6,5.00,0.00,28.9,27.0,00.0,37.6,30.7,11.3,0000.0,0013.69,0005.23,0004.50
2022-06-23 19:11:00,,0825.6,5.00,0.00,28.8,26.9,00.0,37.5,30.7,11.8,0000.0,0013.89,0005.25,0004.49
2022-06-23 19:12:00,,0825.6,5.00,0.00,28.8,27.0,00.0,37.5,30.7,11.5,0000.0,0012.77,0005.23,0004.49
2022-06-23 19:13:00,,0825.6,5.01,0.00,28.8,27.1,00.0,37.5,30.7,11.5,0000.0,0013.37,0005.21,0004.46
2022-06-23 19:14:00,,0825.6,4.99,0.00,28.8,27.3,00.0,37.6,30.8,11.4,0000.0,0014.11,0005.19,0004.43
2022-06-23 19:15:00,,0825.6,5.00,0.00,28.8,27.5,00.0,37.6,30.8,11.8,0000.0,0014.35,0005.18,0004.40
2022-06-23 19:16:00,,0825.6,4.99,0.00,28.9,27.7,00.0,37.6,30.9,11.5,0000.0,0015.30,0005.13,0004.37
2022-06-23 19:17:00,,0825.6,5.02,0.00,28.9,27.9,00.0,37.6,31.0,11.5,0000.0,0014.95,0005.15,0004.35
2022-06-23 19:18:00,,0825.6,4.99,0.00,29.0,28.0,00.0,37.6,31.0,11.7,0000.0,0015.14,0005.17,0004.34
2022-06-23 19:19:00,,0825.6,5.00,0.00,28.9,27.5,00.0,37.6,30.8,11.9,0000.0,0015.06,0005.20,0004.35
2022-06-23 19:20:00,,0825.6,5.00,0.00,28.9,27.0,00.0,37.5,30.7,11.4,0000.0,0014.99,0005.25,0004.37
2022-06-23 19:21:00,,0825.5,5.01,0.00,28.8,27.0,00.0,37.5,30.7,11.2,0000.0,0014.77,0005.30,0004.40
2022-06-23 19:22:00,,0825.5,5.00,0.00,28.8,27.1,00.0,37.5,30.7,11.3,0000.0,0012.99,0005.30,0004.42
2022-06-23 19:23:00,,0825.5,5.00,0.00,28.8,27.3,00.0,37.6,30.7,11.3,0000.0,0012.98,0005.31,0004.43
2022-06-23 19:24:00,,0825.5,5.00,0.00,28.8,27.5,00.0,37.6,30.8,11.6,0000.0,0012.62,0005.32,0004.45
2022-06-23 19:25:00,,0825.6,4.99,0.00,28.9,27.6,00.0,37.6,30.9,11.4,0000.0,0012.03,0005.41,0004.47
2022-06-23 19:26:00,,0825.5,5.00,0.00,28.9,27.8,00.0,37.6,30.9,11.0,0000.0,0012.48,0005.40,0004.50
2022-06-23 19:27:00,,0825.5,5.01,0.00,29.0,27.9,00.0,37.6,31.0,10.9,0000.0,0012.70,0005.42,0004.52
2022-06-23 19:28:00,,0825.5,5.01,0.00,28.9,27.4,00.0,37.6,30.8,11.1,0000.0,0012.85,0005.41,0004.54
2022-06-23 19:29:00,,0825.5,4.99,0.00,28.9,26.9,00.0,37.5,30.7,11.1,0000.0,0013.22,0005.42,0004.58
2022-06-23 19:30:00,,0825.5,5.01,0.00,28.8,26.9,00.0,37.5,30.7,10.9,0000.0,0013.21,0005.44,0004.60
2022-06-23 19:31:00,,0825.4,5.00,0.00,28.8,27.0,00.0,37.5,30.7,11.1,0000.0,0012.78,0005.42,0004.60
2022-06-23 19:32:00,,0825.5,5.01,0.00,28.8,27.2,00.0,37.6,30.7,11.3,0000.0,0013.48,0005.36,0004.60
2022-06-23 19:33:00,,0825.5,5.00,0.00,28.8,27.3,00.0,37.6,30.8,11.4,0000.0,0013.71,0005.35,0004.59
2022-06-23 19:34:00,,0825.5,5.00,0.00,28.9,27.6,00.0,37.6,30.8,11.6,0000.0,0013.97,0005.38,0004.61
2022-06-23 19:35:00,,0825.5,4.99,0.00,28.9,27.7,00.0,37.6,30.9,11.2,0000.0,0013.74,0005.37,0004.62
2022-06-23 19:36:00,,0825.5,5.00,0.00,28.9,27.9,00.0,37.6,31.0,11.1,0000.0,0013.62,0005.36,0004.63
2022-06-23 19:37:00,,0825.4,5.00,0.00,29.0,28.0,00.0,37.7,31.0,11.6,0000.0,0013.07,0005.40,0004.64
2022-06-23 19:38:00,,0825.4,5.01,0.00,29.0,27.6,00.0,37.6,30.9,11.4,0000.0,0012.45,0005.42,0004.66
2022-06-23 19:39:00,,0825.4,5.00,0.00,28.9,27.0,00.0,37.6,30.7,11.1,0000.0,0011.92,0005.44,0004.67
2022-06-23 19:40:00,,0825.4,5.00,0.00,28.9,26.9,00.0,37.5,30.7,11.2,0000.0,0011.49,0005.47,0004.67
2022-06-23 19:41:00,,0825.4,5.00,0.00,28.8,27.0,00.0,37.6,30.7,11.3,0000.0,0011.84,0005.44,0004.67
2022-06-23 19:42:00,,0825.4,5.00,0.00,28.8,27.2,00.0,37.6,30.7,11.1,0000.0,0012.18,0005.43,0004.69
2022-06-23 19:43:00,,0825.4,5.00,0.00,28.9,27.4,00.0,37.6,30.8,11.3,0000.0,0011.10,0005.45,0004.71
2022-06-23 19:44:00,,0825.4,4.99,0.00,28.9,27.6,00.0,37.6,30.9,11.4,0000.0,0010.82,0005.49,0004.74
2022-06-23 19:45:00,,0825.4,4.99,0.00,28.9,27.8,00.0,37.6,30.9,11.1,0000.0,0010.69,0005.55,0004.77
2022-06-23 19:46:00,,0825.3,5.01,0.00,29.0,28.0,00.0,37.6,31.0,11.0,0000.0,0011.23,0005.62,0004.81
2022-06-23 19:47:00,,0825.4,5.00,0.00,29.0,27.9,00.0,37.6,31.0,11.1,0000.0,0011.74,0005.65,0004.85
2022-06-23 19:48:00,,0825.4,5.00,0.00,28.9,27.3,00.0,37.6,30.8,11.4,0000.0,0011.71,0005.65,0004.88
2022-06-23 19:49:00,,0825.3,5.00,0.00,28.9,26.9,00.0,37.6,30.7,11.0,0000.0,0011.48,0005.65,0004.89
2022-06-23 19:50:00,,0825.4,4.99,0.00,28.9,26.9,00.0,37.6,30.7,11.3,0000.0,0011.17,0005.65,0004.91
2022-06-23 19:51:00,,0825.4,4.99,0.00,28.8,27.1,00.0,37.6,30.7,11.2,0000.0,0011.23,0005.69,0004.93
2022-06-23 19:52:00,,0825.3,5.01,0.00,28.8,27.2,00.0,37.6,30.7,11.3,0000.0,0011.28,0005.76,0004.96
2022-06-23 19:53:00,,0825.3,5.00,0.00,28.8,27.4,00.0,37.6,30.8,11.0,0000.0,0010.74,0005.84,0004.99
2022-06-23 19:54:00,,0825.3,5.01,0.00,28.9,27.6,00.0,37.6,30.9,10.9,0000.0,0011.22,0005.88,0005.02
2022-06-23 19:55:00,,0825.3,5.00,0.00,28.9,27.8,00.0,37.6,30.9,11.0,0000.0,0011.74,0005.92,0005.04
2022-06-23 19:56:00,,0825.4,4.99,0.00,29.0,28.0,00.0,37.6,31.0,10.7,0000.0,0012.50,0005.91,0005.06
2022-06-23 19:57:00,,0825.3,5.00,0.00,29.0,27.7,00.0,37.6,30.9,10.7,0000.0,0012.41,0005.84,0005.08
2022-06-23 19:58:00,,0825.3,5.01,0.00,28.9,27.1,00.0,37.6,30.7,10.8,0000.0,0011.76,0005.85,0005.08
2022-06-23 19:59:00,,0825.3,5.01,0.00,28.9,27.0,00.0,37.6,30.7,11.0,0000.0,0011.49,0005.86,0005.09
